STARLINK-34686, 65087

Orbit data source: Space-Track

STARLINK-34686, 65087 is a payload satellite owned by SpaceX/Seattle (US) in LEO that was launched on Mon, 04 Aug 2025 UTC via an FALCON 9 launch vehicle from the Air Force Eastern Test Range (AFETR). Payload-class satellites include a variety of spacecraft equipped with specific instruments for various scientific and technological missions. These include communications satellites like Starlink; space stations such as the ISS; scientific satellites like the Hubble; Earth observation satellites from companies like Planet Labs, Umbra, and HawkEye 360; GPS; miniature CubeSats for education and research; and military/defense satellites.

Loading next visibility...
Identifier
65087, 2025-167K
Orbit
LEO
Country
Flag of USUS
Related business
Manufacturer
SpaceX/Seattle
Mission
Operational spacecraft
Bus & Motor
STARLINK V2MO, Unknown motor
Mass
575 kg wet, ~530 kg dry
Launch date (UTC)
2025-08-04 (1 month ago)
Launch vehicle
FALCON 9
Launch site
Air Force Eastern Test Range (AFETR)
Object type
Payload
Rocket body
Debris
Shape & HBR
Unknown
Radar Cross Section
Large (>1 m²)

Expand to show TLE details & history
Last TLE update: 9 hours ago

TLE from 9 hours ago
0 STARLINK-34686
1 65087U 25167K   25243.24335139  .00204935  00000-0  13665-2 0  9999
2 65087  53.1586 194.7049 0001215  88.2815 271.8344 15.74245480  4273
Epoch: 2025-08-31T05:50Z
TLE epoch observation values (Epoch: 2025-08-31T05:50:25.56Z)
Latitude
-0°
Longitude
127.43231°
Altitude
347.67 km
Speed
7.702 km/s
True Right ascension
12h 58m 49s
True Declination
0° 00' 00"
Sunlit
Object was in daylight at epoch
Visualization orbit readout
Latitude
Unknown
Longitude
Unknown
Altitude
Unknown
Speed
Unknown
Apparent Right ascension
Unknown
Apparent Declination
Unknown
Sunlit
N/A
Visualization observer readout
Local Sidereal Time
06:13:01
Azimuth
Unknown
Elevation
Unknown
Doppler factor
Unknown
Orbital elements
Apogee altitude
347.858 km
Perigee altitude
346.223 km
Semi-major axis
6,725.178 km
Eccentricity
0.00012
Inclination
53.1586°
RAAN
194.7049°
Arg. of periapsis
88.2815°
True anomaly
271.82048°
Mean anomaly
271.8344°
Eccentric anomaly
271.82744°
Mean motion
3.93539 °/min
Orbital period
91.48 mins
BSTAR
0.0013665
Loading maneuver chart data...
Computing Atmospheric mass density...
Loading historical data...
Loading historical data...
Loading historical data...
Loading historical data...
Loading historical data...
Loading historical data...
Loading historical data...

Documentation

Showing up to 5 results
|